Location: Newark
(55.7083°N, 13.1992°E)
Time: 16:14:28
(UTC+00:00)

N. Korean satellite - Visible Passes

Search period start: 30 September 2022 00:00
Search period end: 10 October 2022 00:00
Orbit: 427 x 468 km, 97.3° (Epoch: 29 September)

Date Brightness Start Highest point End Pass type
(mag) Time Alt. Az. Time Alt. Az. Time Alt. Az.
30 Sep 9.0 03:52:27 10° NE 03:55:14 24° E 03:57:58 10° SSE visible
01 Oct 10.0 03:18:08 10° ENE 03:19:08 11° E 03:20:08 10° ESE visible
02 Oct 7.9 04:13:20 10° NNE 04:16:28 40° E 04:19:35 10° S visible
03 Oct 9.5 03:38:05 10° NE 03:40:24 18° E 03:42:42 10° SE visible
04 Oct 6.7 04:34:12 10° NNE 04:37:30 71° ESE 04:40:46 10° S visible
05 Oct 8.7 03:58:33 10° NE 04:01:26 28° E 04:04:20 10° SSE visible
06 Oct 9.8 03:23:40 10° ENE 03:25:12 13° E 03:26:42 10° ESE visible
07 Oct 7.5 04:19:06 10° NNE 04:22:17 47° E 04:25:28 10° S visible
08 Oct 9.3 03:43:33 10° NE 03:46:04 20° E 03:48:33 10° SE visible
09 Oct 6.4 04:39:38 10° NNE 04:42:55 82° ESE 04:46:12 10° SSW visible
